Terminal Aerodrome Forecast
Issued by NWS

Home | Current Version | Previous Version | Text Only | Print | Product List | Glossary On
Versions: 1 2 3 4 5 6 7 8 9 10 11 12 13 14 15
000
FTUS43 KICT 241729
TAFRSL
TAF
KRSL 241729Z 2418/2518 31023G31KT P6SM SKC
     FM242300 31007KT P6SM SCT250
     FM251100 24010KT P6SM SCT250=

USA.gov is the U.S. government's official web portal to all federal, state and local government web resources and services.